EDT,Max TemperatureF,Mean TemperatureF,Min TemperatureF,Max Dew PointF,MeanDew PointF,Min DewpointF,Max Humidity, Mean Humidity, Min Humidity, Max Sea Level PressureIn, Mean Sea Level PressureIn, Min Sea Level PressureIn, Max VisibilityMiles, Mean VisibilityMiles, Min VisibilityMiles, Max Wind SpeedMPH, Mean Wind SpeedMPH, Max Gust SpeedMPH,PrecipitationIn, CloudCover, Events, WindDirDegrees
2011-10-1,59,54,48,52,49,46,93,83,72,29.80,29.73,29.67,10,10,3,16,7,21,0.23,6,Rain,313
2011-10-2,52,50,47,47,45,44,93,85,77,29.91,29.81,29.72,10,8,2,13,5,14,0.26,8,Rain,272
2011-10-3,55,52,48,47,45,43,93,82,71,30.09,30.01,29.91,10,9,2,10,2,13,0.08,7,Rain,223
2011-10-4,65,54,42,53,46,42,100,82,63,30.12,30.08,30.04,10,5,0,16,4,22,0.00,4,Fog,316
2011-10-5,72,62,51,52,47,39,89,67,44,30.32,30.17,30.11,10,10,9,18,10,25,0.00,0,,314
2011-10-6,69,55,41,43,39,34,89,59,28,30.43,30.37,30.30,10,10,8,12,2,14,0.00,0,,276
2011-10-7,70,56,41,47,41,34,96,61,26,30.50,30.44,30.37,10,9,2,9,2,12,0.00,0,,128
2011-10-8,77,61,44,52,48,41,93,63,33,30.55,30.49,30.44,10,10,9,9,1,12,0.00,0,,264
2011-10-9,84,66,48,57,52,46,93,64,34,30.48,30.41,30.33,10,8,2,7,1,10,0.00,0,,243
2011-10-10,80,65,50,60,55,49,93,68,42,30.33,30.25,30.17,10,9,6,8,1,9,0.00,0,,289
2011-10-11,75,64,52,58,53,46,100,76,52,30.20,30.16,30.12,10,7,0,12,3,16,0.00,3,Fog,65
2011-10-12,63,60,56,55,53,47,93,75,56,30.15,30.04,29.91,10,9,5,15,6,21,0.37,7,Rain,60
2011-10-13,70,63,56,66,59,55,100,94,87,29.89,29.75,29.58,10,4,2,13,6,22,0.10,8,Rain-Thunderstorm,52
2011-10-14,70,62,54,66,59,44,93,78,62,29.61,29.47,29.37,10,8,1,24,7,32,0.64,4,Rain-Thunderstorm,187
2011-10-15,67,59,50,45,40,31,77,55,32,29.83,29.68,29.61,10,10,10,26,10,39,T,2,,236
2011-10-16,69,61,52,47,39,32,60,48,35,29.95,29.83,29.66,10,10,10,20,9,28,T,3,,219
2011-10-17,67,58,48,50,41,34,72,51,29,29.84,29.78,29.70,10,10,10,22,8,28,T,3,,260
2011-10-18,72,59,45,46,42,34,93,60,26,29.89,29.85,29.81,20,10,8,9,2,12,T,1,,180
2011-10-19,68,62,56,63,58,46,97,85,72,29.82,29.57,29.28,10,6,2,20,7,35,0.53,8,Rain,70
2011-10-20,70,61,52,67,52,37,93,73,53,29.74,29.44,29.24,10,8,3,20,11,28,0.01,6,Rain,199
2011-10-21,58,52,46,42,40,37,77,66,55,30.08,29.95,29.74,10,10,10,18,9,24,0.00,4,,252
2011-10-22,57,49,40,43,40,39,93,74,55,30.14,30.10,30.07,10,8,2,15,4,18,0.00,3,,291
2011-10-23,61,50,38,44,40,36,96,73,49,30.18,30.13,30.10,10,5,0,12,2,15,0.00,2,Fog,242
2011-10-24,61,52,42,52,46,39,96,83,69,30.14,30.07,29.98,10,6,2,15,3,18,T,2,Rain,220
2011-10-25,64,53,42,47,40,35,93,64,34,30.16,30.07,30.03,20,8,1,21,7,25,0.00,0,Rain,287
2011-10-26,66,55,43,51,46,39,89,73,56,30.06,29.87,29.75,10,10,9,10,1,13,T,1,,231
2011-10-27,60,50,39,56,50,33,93,82,70,30.04,29.69,29.59,10,4,1,21,7,30,0.45,7,Rain,2
2011-10-28,50,43,35,37,31,27,82,62,42,30.27,30.20,30.06,10,10,10,13,4,16,0.00,1,,353
2011-10-29,42,38,33,36,33,31,96,77,58,30.20,30.04,29.93,10,4,0,18,9,30,0.87,7,Fog-Rain-Snow,33
2011-10-30,39,36,32,30,30,30,93,81,70,30.34,30.22,30.01,10,10,10,0,0,,0.00,0,,-1
2011-10-31,55,41,26,37,31,25,100,81,47,30.38,30.33,30.29,10,6,0,5,1,,0.00,3,Fog,20